Location: Unspecified
(34.9016°N, 0.0000°E)
Time: 21:20:18
(UTC+00:00)

ZY-1 02E - Visible Passes

Search period start: 04 April 2026 00:00
Search period end: 14 April 2026 00:00
Orbit: 773 x 775 km, 98.4° (Epoch: 29 March)

Date Brightness Start Highest point End Pass type
(mag) Time Alt. Az. Time Alt. Az. Time Alt. Az.
4 Apr ? 21:30:22 12° NNE 21:30:22 12° NNE 21:30:49 10° NNE visible
5 Apr ? 22:35:56 12° NNW 22:35:56 12° NNW 22:36:15 10° NNW visible
6 Apr ? 22:01:08 15° N 22:01:08 15° N 22:01:55 10° N visible
7 Apr ? 21:26:19 13° NNE 21:26:19 13° NNE 21:27:01 10° NNE visible
8 Apr ? 22:31:54 14° NNW 22:31:54 14° NNW 22:32:34 10° NNW visible
9 Apr ? 21:57:05 16° N 21:57:05 16° N 21:58:11 10° N visible
10 Apr ? 21:22:18 14° NNE 21:22:18 14° NNE 21:23:12 10° NNE visible
10 Apr ? 23:02:40 10° NNW 23:02:40 10° NNW 23:02:46 10° NNW visible
11 Apr ? 22:27:52 16° NNW 22:27:52 16° NNW 22:28:53 10° NNW visible
12 Apr ? 21:53:04 18° N 21:53:04 18° N 21:54:27 10° N visible
13 Apr ? 21:18:15 15° NNE 21:18:15 15° NNE 21:19:23 10° NNE visible
13 Apr ? 22:58:38 13° NNW 22:58:38 13° NNW 22:59:08 10° NNW visible
